Tracking 19288 objects as of 20-Nov-2018
HD Live streaming from Space Station
objects crossing your sky now

COSMOS 2287 (GLONASS)

Track COSMOS 2287 (GLONASS) now!
COSMOS 2287 (GLONASS) is classified as:


NORAD ID: 23203
Int'l Code: 1994-050A
Perigee: 19,116.2 km
Apogee: 19,157.8 km
Inclination: 66.0 °
Period: 675.7 minutes
Semi major axis: 25507 km
RCS: 3.2588 m2 (large)
Launch date: August 11, 1994
Source: Commonwealth of Independent States (former USSR) (CIS)
Launch site: TYURATAM MISSILE AND SPACE COMPLEX (TTMTR)
SV:
aabbcc
Your satellite tracking list
Your tracking list is empty




NASA's NSSDC Master Catalog

Two Line Element Set (TLE):
1 23203U 94050A   18324.05221334 -.00000007  00000-0  00000+0 0  9993
2 23203  66.0141 292.7532 0008159  49.1347 128.1285  2.13102462188949
Source of the keplerian elements: AFSPC